Weather in Vientiane

Laos     17°58′08″N   102°36′45″E
В апреле 2022 года жителям России запретили посещать сайт meteo.paraplan.net по решению Генеральной прокуратуры. Аудитория сайта уменьшилась в 10 раз. Владельцы сайта не видят смысла в поддержке погодного сервера в таких условиях. Сайт будет закрыт в октябре.
temp.,
°C
wind,
m/s
gust,
m/s
humid.,
%
clouds,
%
prec.,
mm/h
press.,
hPa
HPBL,
m
25 september, sun
sun2501:00+22ene1297100 0.8 100980
04:00+22ne1197100 0.4 100743
07:00+22nne1299100 1.4 1009120
10:00+23ne129388 0.0 1011292
13:00+25se2592100 1.4 1008400
16:00+23ese2797100 2.5 1007371
19:00+22e119761 3.4 100925
22:00+22ese2397100 0.5 1011119
26 september, mon
mon2601:00+22ene2599100 8.4 1010287
04:00+22e1499100 0.8 1009187
07:00+22ene1198100 1.3 101162
10:00+25ese238860 1.1 1012691
13:00+27sse128238 3.6 1009688
16:00+27sse228312 3.3 1007663
19:00+24sw11935 4.4 100813
22:00+23nw119734 2.3 101015
27 september, tue
tue2701:00+22n119873 5.4 100936
04:00+22n1198100 0.4 100836
07:00+23nnw1196100 0.4 100968
10:00+29nne117176 0.0 1010779
13:00+31ese22576 0.0 10061478
16:00+31sse216034 0.0 1003875
19:00+26sw118023 0.0 100511
22:00+24wnw1183100 0.0 100711
28 september, wed
wed2801:00+23nnw118757 0.1 100516
04:00+23nnw1191100 0.0 100418
07:00+24nw138997 0.0 100598
10:00+30nw236399 0.0 1005861
13:00+33nne2450100 0.1 10011861
16:00+32ese3460100 0.0 998327
19:00+26s2488100 0.3 1001118
22:00+24e2396100 0.9 100380
29 september, thu
thu2901:00+23s2499100 3.1 1001189
04:00+23ene1198100 1.1 100034
07:00+23sw2498100 6.6 1001209
10:00+25wnw3690100 1.2 1002406
13:00+24ese0193100 1.9 1001105
16:00+25nnw2391100 0.6 1000366
19:00+23wnw1195100 0.8 100246
22:00+23s1197100 0.3 100519